User: anonymous   Login
Location: Bridgewater
(44.3670°N, 64.5170°W)
Time: 22:58:17
(UTC-04:00)
Language:

OPAL - Orbit

View from above orbital plane
View from above orbital plane
View from above satellite
View from above satellite

Ground track
Ground track

The orbit data is extracted from the following two-line orbital elements,

1 26063U 00004C   14331.50364512  .00000199  00000-0  87433-4 0  1203
2 26063 100.2260 147.7575 0037062 058.7083 301.7718 14.36447235777473
Epoch (UTC): 27 November 2014 12:05:14
Eccentricity: 0.0037062
inclination: 100.2260°
perigee height: 744 km
apogee height: 797 km
right ascension of ascending node: 147.7575°
argument of perigee: 58.7083°
revolutions per day: 14.36447235
mean anomaly at epoch: 301.7718°
orbit number at epoch: 77747

The dashed part of the orbit path shows where the satellite is in the earth's shadow,  

DLR